This demonstration page uses our WeatherBlox Daily Observations layout. Learn more.

Left ArrowRight Arrow

39.12711, -84.51439

Hourly Observations for September 22, 2018

Temp ( °F °C ) Dew Point ( °F °C ) Humidity (%) Winds ( mph kmh ) Pressure ( in mb ) Visibility ( mi km ) Precip ( " mm )
12:53 am 00:53 Clear 72 22.2 59 15 64 64 N 8 13 30.11 1020 10 16 0.00 0.00
1:53 am 01:53 Mostly Clear 69 20.6 56 13.3 63 63 NNE 14 22 30.14 1021 10 16 0.00 0.00
2:53 am 02:53 Mostly Clear 67 19.4 56 13.3 68 68 N 9 15 30.15 1021 10 16 0.00 0.00
3:53 am 03:53 Clear 66 18.9 57 13.9 73 73 N 8 13 30.16 1021 10 16 0.00 0.00
4:53 am 04:53 Mostly Cloudy 65 18.3 56 13.3 73 73 NE 8 13 30.17 1022 10 16 0.00 0.00
5:53 am 05:53 Mostly Cloudy 64 17.8 55 12.8 73 73 NNE 8 13 30.19 1022 10 16 0.00 0.00
6:53 am 06:53 Mostly Cloudy 63 17.2 54 12.2 73 73 NNE 9 15 30.20 1023 10 16 0.00 0.00
7:53 am 07:53 Mostly Cloudy 62 16.7 55 12.8 78 78 NE 7 11 30.22 1023 10 16 0.00 0.00
8:53 am 08:53 Sunny 62 16.7 55 12.8 78 78 NE 9 15 30.21 1023 10 16 0.00 0.00
9:53 am 09:53 Mostly Sunny 64 17.8 56 13.3 75 75 NE 10 17 30.22 1023 10 16 0.00 0.00
10:53 am 10:53 Sunny 64 17.8 56 13.3 75 75 NE 9 15 30.22 1024 10 16 0.00 0.00
11:53 am 11:53 Sunny 64 17.8 56 13.3 75 75 NE 10 17 30.24 1024 10 16 0.00 0.00
12:53 pm 12:53 Cloudy with Light Rain 64 17.8 57 13.9 78 78 NE 9 15 30.23 1024 10 16 0.00 0.03
1:53 pm 13:53 Cloudy with Light Rain 63 17.2 58 14.4 84 84 NE 5 7 30.22 1023 8 13 0.00 0.03
2:53 pm 14:53 Mostly Cloudy with Light Rain 62 16.7 60 15.6 93 93 N 7 11 30.19 1022 8 13 0.02 0.51
3:53 pm 15:53 Cloudy with Light Rain 63 17.2 60 15.6 90 90 Calm 30.20 1023 8 13 0.01 0.25
4:53 pm 16:53 Mostly Cloudy with Light Rain 62 16.7 61 16.1 96 96 NNE 6 9 30.19 1022 8 13 0.01 0.25
5:53 pm 17:53 Mostly Cloudy with Light Rain 62 16.7 61 16.1 96 96 NE 7 11 30.17 1022 8 13 0.03 0.76
6:53 pm 18:53 Cloudy with Light Rain 61 16.1 61 16.1 100 100 N 7 11 30.19 1022 9 14 0.03 0.76
7:31 pm 19:31 Partly Cloudy with Light Rain 60 15.6 60 15.6 100 100 ENE 8 13 30.18 1022 9 14 0.02 0.51
7:53 pm 19:53 Partly Cloudy with Light Rain 60 15.6 60 15.6 100 100 NNE 7 11 30.17 1022 8 13 0.04 1.02
8:53 pm 20:53 Mostly Cloudy 60 15.6 60 15.6 100 100 NNE 7 11 30.19 1022 8 13 0.01 0.25
9:53 pm 21:53 Mostly Cloudy 60 15.6 60 15.6 100 100 NE 3 6 30.18 1022 9 14 0.00 0.00
10:24 pm 22:24 Cloudy 60 15.6 60 15.6 100 100 NE 7 11 30.18 1022 10 16 0.00 0.00
10:53 pm 22:53 Cloudy 60 15.6 59 15 96 96 NE 6 9 30.19 1022 10 16 0.00 0.00
11:53 pm 23:53 Cloudy 60 15.6 59 15 96 96 Calm 30.18 1022 10 16 0.00 0.00

Powered by AerisWeather